Weather Roundup
Issued by NWS Chicago, IL

Home | Current Version | Previous Version | Text Only | Print | Product List | Glossary Off
Versions: 1 2 3 4 5 6 7 8 9 10 11 12 13 14 15 16 17 18 19 20 21 22 23 24 25 26 27 28 29 30 31 32 33 34 35 36 37 38 39 40 41 42 43 44 45 46 47 48 49 50

000
NZUS59 KLOT 300312
HRRLOT

CHICAGO AREA WEATHER ROUNDUP
NATIONAL WEATHER SERVICE CHICAGO/ROMEOVILLE IL
1000 PM CDT WED JUL 29 2015

NOTE: "FAIR" INDICATES FEW OR NO CLOUDS BELOW 12,000 FEET WITH NO
SIGNIFICANT WEATHER AND/OR OBSTRUCTIONS TO VISIBILITY.

* THESE STATIONS ARE NOT UNDER NWS QUALITY CONTROL. THEY ALSO MAY NOT
  REPORT WEATHER SUCH AS PRECIPITATION OR FOG.

ILZ005-006-012>014-019>023-300400-
NORTHEAST ILLINOIS

CITY           SKY/WX    TMP DP  RH WIND       PRES   REMARKS
OHARE          PTCLDY    75  57  53 W9        30.01R
MIDWAY         CLEAR     79  56  45 W7        30.02R HX  80
AURORA         CLEAR     67  59  75 W7        30.04R
LANSING*       CLEAR     73  54  50 W7        30.03R
JOLIET*        CLEAR     71  62  71 CALM      30.04R
WAUKEGAN       CLEAR     74  54  49 W6        29.99R
DUPAGE AIRPORT CLEAR     69  58  67 SW3       30.03R
WHEELING       CLEAR     76  52  43 W6        30.02R
KANKAKEE*      CLEAR     69  64  82 CALM      30.06R
MORRIS*        CLEAR     67  62  83 W6        30.04R
LEWIS AIRPORT* CLEAR     71  58  64 W7        30.04R
NORTHERLY IS     N/A     79  53  40 SW7         N/A
$$

WIZ051-052-058>065-066-070>072-300400-
SOUTHEAST WISCONSIN

CITY           SKY/WX    TMP DP  RH WIND       PRES   REMARKS
MILWAUKEE      CLEAR     77  51  40 W9        29.98R
KENOSHA*       CLEAR     66  55  67 SW8       30.00R
RACINE*        CLEAR     73  53  49 W7        30.00R
BURLINGTON     CLEAR     67  53  61 W6        30.00R
WAUKESHA       CLEAR     70  52  52 SW7       30.00R
WEST BEND      CLEAR     72  50  46 SW3       29.97R
$$

INZ001>003-010>013-019-020-300400-
NORTHWEST INDIANA

CITY           SKY/WX    TMP DP  RH WIND       PRES   REMARKS
GARY*          PTCLDY    77  57  50 W7        30.03R
MICHIGAN CITY* NOT AVBL
RENSSELAER*    NOT AVBL
VALPARAISO     CLEAR     69  58  67 W9        30.03R
$$

LMZ740>746-300400-
SOUTHERN LAKE MICHIGAN

STATION/POSITION TIME  SKY/WX   TEMP WIND        PRES    VSBY
                                AIR  DIR/SP/G
                 (UTC)          (F)  (DEG/KT/KT) (MB)    (MI)
HARRISON CRIB    0215            79  270/ 13/ 17   N/A
BURNHAM HARBOR   0300            78  260/  6/ 10   N/A
CALUMET HARBOR   0200            80                N/A
BURNS HARBOR     0200            77  280/ 10/ 12 1015.9R
MICHIGAN CITY    0215            77  260/ 15/ 17   N/A
$$

ABBREVIATIONS USED IN REMARKS
   TC - TEMPERATURE IN CELSIUS
  WCI - WIND CHILL INDEX
   HX - HEAT INDEX
  VSB - VISIBILITY
$$


USA.gov is the U.S. government's official web portal to all federal, state and local government web resources and services.